Tucson Davis Monthan, AZ

8:31 PM MST on June 24, 2018 (GMT -0700)
Davis-Monthan Air Force Base

Weather History for KDMA - December, 2017

Change the Weather History Date:

Thursday, December 14, 2017

  Actual Average Record
Temperature  
Mean Temperature 56 °F -  
Max Temperature 69 °F 64 °F 77 °F (1950)
Min Temperature 43 °F 38 °F 27 °F (1949)
Degree Days  
Heating Degree Days 9    
Growing Degree Days 6 (Base 50)    
Moisture  
Dew Point 20 °F    
Average Humidity 28    
Maximum Humidity 41    
Minimum Humidity 13    
Precipitation  
Precipitation 0.00 in - - ()
Sea Level Pressure  
Sea Level Pressure 29.93 in    
Wind  
Wind Speed 7 mph (ESE)    
Max Wind Speed 10 mph    
Max Gust Speed -    
Visibility 10 miles    
Events      
Averages and records for this station are not official NWS values.
T = Trace of Precipitation, MM = Missing Value Source: NWS Daily Summary

Daily Weather History Graph

Daily Weather History Graph

Search for Another Location

Airport or City:

Astronomy

Dec. 14, 2017 Rise Set
Actual Time 7:16 AM MST 5:20 PM MST
Civil Twilight 6:49 AM MST 5:47 PM MST
Nautical Twilight 6:18 AM MST 6:17 PM MST
Astronomical Twilight 5:49 AM MST 6:47 PM MST
Moon 3:56 AM MST (12/14) 3:19 PM MST (12/14)
Length of Visible Light 10h 57m
Length of Day
10h 03m
Waning Crescent, 11% of the Moon is Illuminated
Dec 14
Waning Crescent
Dec 17
New
Dec 26
First Quarter
Jan 1
Full
Jan 8
Last Quarter

Hourly Weather History & Observations

Time (MST) Temp. Windchill Dew Point Humidity Pressure Visibility Wind Dir Wind Speed Gust Speed Precip Events Conditions
12:58 AM 45.1 °F 39.9 °F 21.0 °F 38% 29.89 in 10.0 mi SE 10.4 mph - N/A   Clear
1:58 AM 45.7 °F 41.5 °F 22.1 °F 39% 29.88 in 10.0 mi SE 8.1 mph - N/A   Clear
2:58 AM 44.6 °F 42.2 °F 21.2 °F 39% 29.89 in 10.0 mi ESE 4.6 mph - N/A   Clear
3:58 AM 45.7 °F 40.6 °F 21.6 °F 38% 29.88 in 10.0 mi ESE 10.4 mph - N/A   Clear
4:58 AM 44.4 °F 40.5 °F 21.0 °F 39% 29.89 in 10.0 mi SE 6.9 mph - N/A   Clear
5:58 AM 43.9 °F 38.8 °F 21.7 °F 41% 29.89 in 10.0 mi SE 9.2 mph - N/A   Clear
6:58 AM 45.7 °F 42.7 °F 23.4 °F 41% 29.90 in 10.0 mi ESE 5.8 mph - N/A   Mostly Cloudy
7:58 AM 46.8 °F - 23.7 °F 40% 29.92 in 10.0 mi SE 6.9 mph - N/A   Scattered Clouds
8:58 AM 48.9 °F - 25.7 °F 40% 29.94 in 10.0 mi North 3.5 mph - N/A   Clear
9:58 AM 57.6 °F - 26.4 °F 30% 29.95 in 10.0 mi SW 3.5 mph - N/A   Clear
10:58 AM 62.1 °F - 26.8 °F 26% 29.95 in 10.0 mi West 3.5 mph - N/A   Clear
11:58 AM 66.4 °F - 21.6 °F 18% 29.91 in 10.0 mi NNW 4.6 mph - N/A   Clear
12:58 PM 68.9 °F - 19.4 °F 15% 29.89 in 10.0 mi NW 5.8 mph - N/A   Clear
1:58 PM 69.6 °F - 16.5 °F 13% 29.87 in 10.0 mi NW 5.8 mph - N/A   Clear
2:58 PM 68.9 °F - 17.8 °F 14% 29.88 in 10.0 mi North 4.6 mph - N/A   Clear
3:58 PM 68.4 °F - 17.2 °F 14% 29.88 in 10.0 mi NNW 5.8 mph - N/A   Clear
4:58 PM 65.3 °F - 16.5 °F 15% 29.90 in 10.0 mi NW 10.4 mph - N/A   Clear
5:58 PM 60.4 °F - 16.7 °F 18% 29.94 in 10.0 mi NW 6.9 mph - N/A   Clear
6:58 PM 57.7 °F - 18.0 °F 21% 29.96 in 10.0 mi NW 5.8 mph - N/A   Clear
7:58 PM 52.9 °F - 15.1 °F 22% 29.99 in 10.0 mi WNW 3.5 mph - N/A   Clear
8:58 PM 49.6 °F - 16.2 °F 26% 30.01 in 10.0 mi South 9.2 mph - N/A   Clear
9:58 PM 46.2 °F 41.7 °F 15.6 °F 29% 30.03 in 10.0 mi ESE 9.2 mph - N/A   Clear
10:58 PM 45.9 °F 41.7 °F 15.4 °F 30% 30.04 in 10.0 mi SSE 8.1 mph - N/A   Clear
11:58 PM 43.7 °F 38.6 °F 12.7 °F 29% 30.05 in 10.0 mi ESE 9.2 mph - N/A   Clear